• In Netherlands
  • List of Countries
  • For 7 days
  • Water Temperature
  • Satellite Maps
  • Weather Map
  • Weather Widgets
  • user-avatar
    Login

    Hourly Weather Yelsk

    Today, 28 March, Tuesday

    Time Temperature Precipitation Wind Pressure Humidity
    00:00 +4°C° 0 mm 3 mps 745 mmHg 89%
    01:00 +4°C° 0 mm 4 mps 744 mmHg 90%
    02:00 +4°C° 0 mm 4 mps 743 mmHg 91%
    03:00 +5°C° 0 mm 5 mps 743 mmHg 91%
    04:00 +5°C° 0 mm 5 mps 743 mmHg 92%
    05:00 +5°C° 0 mm 6 mps 742 mmHg 92%
    06:00 +5°C° 0.1 mm 6 mps 743 mmHg 90%
    07:00 +5°C° 0.1 mm 6 mps 743 mmHg 88%
    08:00 +5°C° 0.1 mm 6 mps 743 mmHg 86%
    09:00 +5°C° 0 mm 6 mps 743 mmHg 80%
    10:00 +5°C° 0 mm 6 mps 744 mmHg 74%
    11:00 +7°C° 0 mm 6 mps 744 mmHg 68%
    12:00 +7°C° 0 mm 6 mps 745 mmHg 62%
    13:00 +8°C° 0 mm 6 mps 745 mmHg 55%
    14:00 +9°C° 0 mm 6 mps 745 mmHg 49%
    15:00 +8°C° 0 mm 6 mps 746 mmHg 51%
    16:00 +8°C° 0 mm 5 mps 746 mmHg 52%
    17:00 +7°C° 0 mm 4 mps 746 mmHg 54%
    18:00 +6°C° 0 mm 4 mps 747 mmHg 60%
    19:00 +4°C° 0 mm 3 mps 747 mmHg 67%
    20:00 +3°C° 0 mm 3 mps 748 mmHg 73%
    21:00 +2°C° 0 mm 3 mps 748 mmHg 75%
    22:00 +3°C° 0 mm 2 mps 749 mmHg 78%
    23:00 +2°C° 0 mm 2 mps 749 mmHg 80%

    Tomorrow, 29 March, Wednesday

    Time Temperature Precipitation Wind Pressure Humidity
    00:00 +2°C° 0 mm 2 mps 750 mmHg 83%
    01:00 +1°C° 0 mm 2 mps 750 mmHg 85%
    02:00 +1°C° 0 mm 2 mps 750 mmHg 88%
    03:00 -1°C° 0 mm 2 mps 750 mmHg 89%
    04:00 +1°C° 0 mm 1 mps 750 mmHg 90%
    05:00 0°C° 0 mm 1 mps 750 mmHg 92%
    06:00 +1°C° 0 mm 1 mps 750 mmHg 84%
    07:00 +3°C° 0 mm 1 mps 751 mmHg 77%
    08:00 +4°C° 0 mm 1 mps 751 mmHg 69%
    09:00 +5°C° 0 mm 1 mps 750 mmHg 63%
    10:00 +7°C° 0 mm 1 mps 750 mmHg 57%
    11:00 +8°C° 0 mm 2 mps 750 mmHg 52%
    12:00 +9°C° 0 mm 2 mps 749 mmHg 52%
    13:00 +10°C° 0 mm 2 mps 748 mmHg 52%
    14:00 +11°C° 0 mm 3 mps 747 mmHg 52%
    15:00 +10°C° 0 mm 2 mps 746 mmHg 60%
    16:00 +10°C° 0 mm 2 mps 746 mmHg 67%
    17:00 +10°C° 0 mm 2 mps 745 mmHg 75%
    18:00 +9°C° 0.3 mm 2 mps 744 mmHg 81%
    19:00 +9°C° 0.3 mm 2 mps 744 mmHg 86%
    20:00 +8°C° 0.3 mm 3 mps 743 mmHg 92%
    21:00 +8°C° 0.6 mm 3 mps 743 mmHg 94%
    22:00 +8°C° 0.6 mm 3 mps 743 mmHg 95%
    23:00 +8°C° 0.6 mm 3 mps 742 mmHg 97%

    Day after tomorrow, 30 March, Thursday

    Time Temperature Precipitation Wind Pressure Humidity
    00:00 +7°C° 1.3 mm 3 mps 742 mmHg 97%
    01:00 +7°C° 1.3 mm 3 mps 742 mmHg 96%
    02:00 +6°C° 1.3 mm 4 mps 743 mmHg 96%
    03:00 +6°C° 0.3 mm 4 mps 743 mmHg 93%
    04:00 +5°C° 0.3 mm 5 mps 744 mmHg 91%
    05:00 +5°C° 0.3 mm 5 mps 744 mmHg 88%
    06:00 +5°C° 0 mm 5 mps 745 mmHg 87%
    07:00 +3°C° 0 mm 5 mps 746 mmHg 86%
    08:00 +3°C° 0 mm 5 mps 747 mmHg 84%
    09:00 +3°C° 0 mm 5 mps 747 mmHg 81%
    10:00 +3°C° 0 mm 5 mps 748 mmHg 78%
    11:00 +3°C° 0 mm 5 mps 749 mmHg 75%
    12:00 +3°C° 0 mm 5 mps 749 mmHg 73%
    13:00 +3°C° 0 mm 5 mps 750 mmHg 71%
    14:00 +3°C° 0 mm 5 mps 751 mmHg 69%
    15:00 +3°C° 0 mm 5 mps 751 mmHg 67%
    16:00 +4°C° 0 mm 4 mps 752 mmHg 66%
    17:00 +3°C° 0 mm 4 mps 753 mmHg 64%
    18:00 +1°C° 0 mm 4 mps 754 mmHg 66%
    19:00 +2°C° 0 mm 3 mps 754 mmHg 69%
    20:00 +1°C° 0 mm 3 mps 755 mmHg 71%
    21:00 +1°C° 0 mm 2 mps 756 mmHg 73%
    22:00 -1°C° 0 mm 2 mps 756 mmHg 76%
    23:00 0°C° 0 mm 1 mps 757 mmHg 78%

    31 March, Friday

    Time Temperature Precipitation Wind Pressure Humidity
    00:00 0°C° 0 mm 1 mps 757 mmHg 77%
    01:00 0°C° 0 mm 1 mps 757 mmHg 77%
    02:00 0°C° 0 mm 1 mps 758 mmHg 76%
    03:00 0°C° 0 mm 1 mps 758 mmHg 75%
    04:00 0°C° 0 mm 1 mps 758 mmHg 74%
    05:00 0°C° 0 mm 1 mps 758 mmHg 73%
    06:00 0°C° 0 mm 1 mps 758 mmHg 67%
    07:00 -1°C° 0 mm 2 mps 757 mmHg 61%
    08:00 0°C° 0 mm 3 mps 757 mmHg 55%
    09:00 +1°C° 0 mm 3 mps 757 mmHg 52%
    10:00 +2°C° 0 mm 3 mps 756 mmHg 48%
    11:00 +4°C° 0 mm 4 mps 756 mmHg 45%
    12:00 +5°C° 0 mm 4 mps 755 mmHg 47%
    13:00 +6°C° 0 mm 4 mps 754 mmHg 49%
    14:00 +7°C° 0 mm 5 mps 753 mmHg 51%
    15:00 +6°C° 0 mm 4 mps 752 mmHg 59%
    16:00 +6°C° 0 mm 4 mps 752 mmHg 67%
    17:00 +7°C° 0 mm 3 mps 751 mmHg 76%
    18:00 +7°C° 0 mm 3 mps 751 mmHg 81%
    19:00 +5°C° 0 mm 4 mps 751 mmHg 85%
    20:00 +5°C° 0 mm 4 mps 750 mmHg 90%
    21:00 +5°C° 0 mm 4 mps 750 mmHg 92%
    22:00 +5°C° 0 mm 4 mps 750 mmHg 93%
    23:00 +5°C° 0 mm 3 mps 750 mmHg 95%

    1 April, Saturday

    Time Temperature Precipitation Wind Pressure Humidity
    00:00 +5°C° 0 mm 3 mps 750 mmHg 95%
    01:00 +5°C° 0 mm 3 mps 749 mmHg 96%
    02:00 +5°C° 0 mm 3 mps 749 mmHg 97%
    03:00 +5°C° 0 mm 3 mps 749 mmHg 97%
    04:00 +5°C° 0 mm 3 mps 749 mmHg 97%
    05:00 +5°C° 0 mm 3 mps 749 mmHg 96%
    06:00 +7°C° 0 mm 3 mps 749 mmHg 92%
    07:00 +7°C° 0 mm 4 mps 749 mmHg 88%
    08:00 +8°C° 0 mm 4 mps 749 mmHg 84%
    09:00 +10°C° 0 mm 4 mps 749 mmHg 78%
    10:00 +12°C° 0 mm 4 mps 748 mmHg 72%
    11:00 +14°C° 0 mm 4 mps 748 mmHg 66%
    12:00 +15°C° 0 mm 4 mps 748 mmHg 63%
    13:00 +17°C° 0 mm 4 mps 748 mmHg 59%
    14:00 +17°C° 0 mm 5 mps 748 mmHg 56%
    15:00 +18°C° 0 mm 4 mps 748 mmHg 60%
    16:00 +17°C° 0 mm 3 mps 748 mmHg 64%
    17:00 +17°C° 0 mm 2 mps 747 mmHg 67%
    18:00 +15°C° 0.1 mm 2 mps 748 mmHg 74%
    19:00 +14°C° 0.1 mm 2 mps 748 mmHg 81%
    20:00 +12°C° 0.1 mm 2 mps 748 mmHg 87%
    21:00 +12°C° 0 mm 2 mps 749 mmHg 90%
    22:00 +11°C° 0 mm 1 mps 749 mmHg 92%
    23:00 +10°C° 0 mm 1 mps 749 mmHg 95%

    2 April, Sunday

    Time Temperature Precipitation Wind Pressure Humidity
    00:00 +10°C° 0 mm 1 mps 749 mmHg 96%
    01:00 +9°C° 0 mm 1 mps 750 mmHg 96%
    02:00 +9°C° 0 mm 1 mps 750 mmHg 97%
    03:00 +9°C° 0 mm 1 mps 750 mmHg 97%
    04:00 +8°C° 0 mm 2 mps 750 mmHg 98%
    05:00 +7°C° 0 mm 2 mps 751 mmHg 98%
    06:00 +8°C° 0 mm 2 mps 751 mmHg 96%
    07:00 +8°C° 0 mm 2 mps 752 mmHg 94%
    08:00 +8°C° 0 mm 3 mps 752 mmHg 92%
    09:00 +9°C° 0 mm 3 mps 752 mmHg 89%
    10:00 +9°C° 0 mm 3 mps 752 mmHg 86%
    11:00 +9°C° 0 mm 3 mps 753 mmHg 84%
    12:00 +10°C° 0 mm 3 mps 752 mmHg 82%
    13:00 +11°C° 0 mm 3 mps 752 mmHg 80%
    14:00 +11°C° 0 mm 3 mps 752 mmHg 78%
    15:00 +11°C° 0 mm 3 mps 752 mmHg 79%
    16:00 +12°C° 0 mm 3 mps 752 mmHg 79%
    17:00 +12°C° 0 mm 3 mps 751 mmHg 80%
    18:00 +11°C° 0 mm 3 mps 751 mmHg 86%
    19:00 +10°C° 0 mm 3 mps 751 mmHg 92%
    20:00 +8°C° 0 mm 3 mps 751 mmHg 97%
    21:00 +8°C° 0 mm 3 mps 750 mmHg 98%
    22:00 +8°C° 0 mm 3 mps 750 mmHg 98%
    23:00 +8°C° 0 mm 3 mps 750 mmHg 98%
    Show more